• In Russia
  • List of Countries
  • For 7 days
  • Water Temperature
  • Satellite Maps
  • Weather Map
  • Weather Widgets
  • user-avatar
    Login

    Hourly Weather Fier

    Today, 28 March, Tuesday

    Time Temperature Precipitation Wind Pressure Humidity
    00:00 +10°C° 0.1 mm 3 mps 764 mmHg 77%
    01:00 +10°C° 0.1 mm 3 mps 764 mmHg 78%
    02:00 +10°C° 0 mm 3 mps 764 mmHg 78%
    03:00 +9°C° 0 mm 3 mps 764 mmHg 79%
    04:00 +9°C° 0 mm 3 mps 764 mmHg 79%
    05:00 +9°C° 0 mm 3 mps 764 mmHg 77%
    06:00 +10°C° 0 mm 3 mps 764 mmHg 74%
    07:00 +11°C° 0 mm 3 mps 764 mmHg 72%
    08:00 +12°C° 0 mm 3 mps 764 mmHg 63%
    09:00 +15°C° 0 mm 2 mps 764 mmHg 55%
    10:00 +17°C° 0 mm 2 mps 764 mmHg 46%
    11:00 +18°C° 0 mm 2 mps 764 mmHg 44%
    12:00 +19°C° 0 mm 3 mps 764 mmHg 41%
    13:00 +20°C° 0 mm 3 mps 763 mmHg 38%
    14:00 +20°C° 0 mm 4 mps 763 mmHg 40%
    15:00 +19°C° 0 mm 4 mps 763 mmHg 42%
    16:00 +19°C° 0 mm 5 mps 763 mmHg 44%
    17:00 +15°C° 0 mm 5 mps 763 mmHg 53%
    18:00 +13°C° 0 mm 4 mps 764 mmHg 61%
    19:00 +11°C° 0 mm 4 mps 764 mmHg 69%
    20:00 +11°C° 0 mm 4 mps 764 mmHg 69%
    21:00 +11°C° 0 mm 4 mps 764 mmHg 69%
    22:00 +10°C° 0 mm 3 mps 765 mmHg 68%
    23:00 +10°C° 0 mm 3 mps 765 mmHg 67%

    Tomorrow, 29 March, Wednesday

    Time Temperature Precipitation Wind Pressure Humidity
    00:00 +10°C° 0 mm 3 mps 765 mmHg 66%
    01:00 +10°C° 0 mm 3 mps 765 mmHg 64%
    02:00 +10°C° 0 mm 3 mps 765 mmHg 63%
    03:00 +9°C° 0 mm 3 mps 764 mmHg 62%
    04:00 +9°C° 0 mm 3 mps 764 mmHg 60%
    05:00 +10°C° 0 mm 3 mps 764 mmHg 58%
    06:00 +11°C° 0 mm 3 mps 764 mmHg 56%
    07:00 +12°C° 0 mm 3 mps 765 mmHg 54%
    08:00 +15°C° 0 mm 2 mps 765 mmHg 47%
    09:00 +18°C° 0 mm 2 mps 765 mmHg 41%
    10:00 +20°C° 0 mm 2 mps 765 mmHg 34%
    11:00 +21°C° 0 mm 3 mps 764 mmHg 33%
    12:00 +22°C° 0 mm 4 mps 764 mmHg 32%
    13:00 +22°C° 0 mm 4 mps 764 mmHg 31%
    14:00 +22°C° 0 mm 5 mps 763 mmHg 34%
    15:00 +21°C° 0 mm 5 mps 763 mmHg 37%
    16:00 +21°C° 0 mm 5 mps 763 mmHg 40%
    17:00 +17°C° 0 mm 5 mps 763 mmHg 51%
    18:00 +15°C° 0 mm 4 mps 763 mmHg 61%
    19:00 +12°C° 0 mm 4 mps 763 mmHg 71%
    20:00 +12°C° 0 mm 3 mps 764 mmHg 70%
    21:00 +12°C° 0 mm 3 mps 764 mmHg 69%
    22:00 +11°C° 0 mm 3 mps 764 mmHg 67%
    23:00 +11°C° 0 mm 3 mps 764 mmHg 66%

    Day after tomorrow, 30 March, Thursday

    Time Temperature Precipitation Wind Pressure Humidity
    00:00 +11°C° 0 mm 3 mps 764 mmHg 64%
    01:00 +11°C° 0 mm 3 mps 764 mmHg 63%
    02:00 +11°C° 0 mm 3 mps 764 mmHg 62%
    03:00 +11°C° 0 mm 3 mps 764 mmHg 62%
    04:00 +11°C° 0 mm 3 mps 764 mmHg 62%
    05:00 +12°C° 0 mm 3 mps 764 mmHg 60%
    06:00 +13°C° 0 mm 3 mps 764 mmHg 58%
    07:00 +14°C° 0 mm 3 mps 764 mmHg 55%
    08:00 +17°C° 0 mm 3 mps 764 mmHg 50%
    09:00 +19°C° 0 mm 3 mps 764 mmHg 44%
    10:00 +21°C° 0 mm 3 mps 764 mmHg 38%
    11:00 +22°C° 0 mm 3 mps 764 mmHg 36%
    12:00 +23°C° 0 mm 4 mps 764 mmHg 34%
    13:00 +25°C° 0 mm 4 mps 763 mmHg 33%
    14:00 +23°C° 0 mm 5 mps 763 mmHg 35%
    15:00 +23°C° 0 mm 5 mps 763 mmHg 38%
    16:00 +22°C° 0 mm 6 mps 763 mmHg 40%
    17:00 +20°C° 0 mm 6 mps 763 mmHg 50%
    18:00 +17°C° 0 mm 5 mps 763 mmHg 59%
    19:00 +14°C° 0 mm 5 mps 764 mmHg 68%
    20:00 +14°C° 0 mm 4 mps 764 mmHg 68%
    21:00 +14°C° 0 mm 4 mps 765 mmHg 68%
    22:00 +14°C° 0 mm 4 mps 765 mmHg 68%
    23:00 +13°C° 0 mm 3 mps 765 mmHg 68%

    31 March, Friday

    Time Temperature Precipitation Wind Pressure Humidity
    00:00 +13°C° 0 mm 3 mps 765 mmHg 67%
    01:00 +13°C° 0 mm 3 mps 765 mmHg 67%
    02:00 +13°C° 0 mm 3 mps 765 mmHg 68%
    03:00 +12°C° 0 mm 3 mps 765 mmHg 69%
    04:00 +12°C° 0 mm 3 mps 765 mmHg 70%
    05:00 +13°C° 0 mm 3 mps 765 mmHg 68%
    06:00 +14°C° 0 mm 3 mps 765 mmHg 66%
    07:00 +16°C° 0 mm 3 mps 765 mmHg 64%
    08:00 +18°C° 0 mm 2 mps 765 mmHg 57%
    09:00 +20°C° 0 mm 2 mps 765 mmHg 51%
    10:00 +23°C° 0 mm 2 mps 765 mmHg 44%
    11:00 +24°C° 0 mm 2 mps 765 mmHg 42%
    12:00 +25°C° 0 mm 3 mps 765 mmHg 40%
    13:00 +25°C° 0 mm 3 mps 764 mmHg 39%
    14:00 +25°C° 0 mm 4 mps 764 mmHg 42%
    15:00 +23°C° 0 mm 4 mps 764 mmHg 45%
    16:00 +22°C° 0 mm 4 mps 764 mmHg 49%
    17:00 +20°C° 0 mm 3 mps 764 mmHg 58%
    18:00 +18°C° 0 mm 3 mps 764 mmHg 68%
    19:00 +16°C° 0 mm 2 mps 764 mmHg 77%
    20:00 +15°C° 0 mm 2 mps 764 mmHg 78%
    21:00 +15°C° 0 mm 1 mps 764 mmHg 79%
    22:00 +14°C° 0 mm 1 mps 764 mmHg 80%
    23:00 +14°C° 0 mm 1 mps 764 mmHg 81%

    1 April, Saturday

    Time Temperature Precipitation Wind Pressure Humidity
    00:00 +14°C° 0 mm 1 mps 764 mmHg 81%
    01:00 +14°C° 0 mm 1 mps 764 mmHg 81%
    02:00 +13°C° 0 mm 1 mps 764 mmHg 82%
    03:00 +13°C° 0 mm 1 mps 764 mmHg 82%
    04:00 +13°C° 0 mm 1 mps 764 mmHg 83%
    05:00 +14°C° 0 mm 1 mps 764 mmHg 77%
    06:00 +16°C° 0 mm 1 mps 764 mmHg 72%
    07:00 +18°C° 0 mm 1 mps 764 mmHg 66%
    08:00 +20°C° 0 mm 1 mps 764 mmHg 61%
    09:00 +21°C° 0 mm 1 mps 764 mmHg 55%
    10:00 +23°C° 0 mm 1 mps 764 mmHg 50%
    11:00 +23°C° 0.2 mm 2 mps 764 mmHg 50%
    12:00 +23°C° 0.2 mm 2 mps 764 mmHg 51%
    13:00 +24°C° 0.2 mm 3 mps 763 mmHg 51%
    14:00 +22°C° 0.3 mm 3 mps 763 mmHg 54%
    15:00 +21°C° 0.3 mm 3 mps 763 mmHg 57%
    16:00 +21°C° 0.3 mm 3 mps 763 mmHg 60%
    17:00 +19°C° 0.1 mm 2 mps 763 mmHg 68%
    18:00 +17°C° 0.1 mm 2 mps 763 mmHg 76%
    19:00 +15°C° 0.1 mm 2 mps 763 mmHg 84%
    20:00 +15°C° 0 mm 2 mps 764 mmHg 84%
    21:00 +15°C° 0 mm 2 mps 764 mmHg 84%
    22:00 +14°C° 0 mm 2 mps 764 mmHg 84%
    23:00 +14°C° 0 mm 2 mps 764 mmHg 85%

    2 April, Sunday

    Time Temperature Precipitation Wind Pressure Humidity
    00:00 +14°C° 0 mm 2 mps 764 mmHg 85%
    01:00 +14°C° 0 mm 2 mps 764 mmHg 86%
    02:00 +14°C° 0 mm 2 mps 764 mmHg 85%
    03:00 +13°C° 0 mm 2 mps 764 mmHg 85%
    04:00 +13°C° 0 mm 2 mps 764 mmHg 84%
    05:00 +14°C° 0 mm 2 mps 764 mmHg 80%
    06:00 +15°C° 0 mm 2 mps 764 mmHg 76%
    07:00 +16°C° 0 mm 2 mps 765 mmHg 72%
    08:00 +18°C° 0 mm 2 mps 765 mmHg 64%
    09:00 +20°C° 0 mm 2 mps 765 mmHg 56%
    10:00 +23°C° 0 mm 2 mps 765 mmHg 49%
    11:00 +22°C° 0 mm 3 mps 764 mmHg 46%
    12:00 +24°C° 0 mm 3 mps 764 mmHg 43%
    13:00 +23°C° 0 mm 4 mps 764 mmHg 41%
    14:00 +22°C° 0 mm 4 mps 764 mmHg 46%
    15:00 +21°C° 0 mm 4 mps 764 mmHg 51%
    16:00 +21°C° 0 mm 4 mps 763 mmHg 56%
    17:00 +19°C° 0 mm 3 mps 763 mmHg 67%
    18:00 +17°C° 0 mm 2 mps 764 mmHg 78%
    19:00 +15°C° 0 mm 1 mps 764 mmHg 88%
    20:00 +14°C° 0 mm 1 mps 764 mmHg 89%
    21:00 +14°C° 0 mm 1 mps 764 mmHg 89%
    22:00 +13°C° 0 mm 1 mps 764 mmHg 89%
    23:00 +13°C° 0 mm 1 mps 764 mmHg 87%
    Show more